| time (UTC) | temp F | wind direction | speed MPH | gust MPH | rain 1hr in | rain 24hr in | rain mn in | humidity % | barometer mb |
| 20260901200053 | 64 | 233 | 0.0 | 0.0 | 0.00 | 0.00 | 0.00 | 85 | 994.0 |
| 20260901194559 | 63 | 238 | 0.0 | 0.0 | 0.00 | 0.00 | 0.00 | 85 | 994.1 |
| 20260901193040 | 63 | 237 | 0.0 | 0.0 | 0.00 | 0.00 | 0.00 | 86 | 994.2 |
| 20260901191542 | 62 | 207 | 0.0 | 3.0 | 0.00 | 0.00 | 0.00 | 86 | 994.2 |
| 20260901190046 | 63 | 202 | 0.0 | 0.0 | 0.00 | 0.00 | 0.00 | 85 | 994.3 |
| 20260901184537 | 63 | 210 | 0.0 | 0.0 | 0.00 | 0.00 | 0.00 | 85 | 994.2 |
| 20260901183041 | 62 | 187 | 0.0 | 0.0 | 0.00 | 0.00 | 0.00 | 86 | 994.2 |
| 20260901181533 | 61 | 193 | 0.0 | 1.0 | 0.00 | 0.00 | 0.00 | 87 | 994.3 |
| 20260901180029 | 60 | 148 | 0.0 | 0.0 | 0.00 | 0.00 | 0.00 | 88 | 994.2 |
| 20260901174529 | 60 | 233 | 0.0 | 1.0 | 0.00 | 0.00 | 0.00 | 88 | 994.1 |
| 20260901173025 | 60 | 107 | 0.0 | 3.0 | 0.00 | 0.00 | 0.00 | 90 | 993.9 |
| 20260901171524 | 59 | 207 | 0.0 | 0.0 | 0.00 | 0.00 | 0.00 | 91 | 994.0 |
| 20260901170021 | 58 | 136 | 0.0 | 0.0 | 0.00 | 0.00 | 0.00 | 92 | 993.9 |
| 20260901164519 | 58 | 148 | 0.0 | 0.0 | 0.00 | 0.00 | 0.00 | 93 | 994.0 |
| 20260901163017 | 57 | 154 | 0.0 | 0.0 | 0.00 | 0.00 | 0.00 | 95 | 994.1 |
| 20260901161515 | 56 | 152 | 0.0 | 0.0 | 0.00 | 0.00 | 0.00 | 96 | 994.2 |
| 20260901160014 | 56 | 143 | 0.0 | 0.0 | 0.00 | 0.00 | 0.00 | 96 | 994.2 |
| 20260901154512 | 56 | 145 | 0.0 | 0.0 | 0.00 | 0.00 | 0.00 | 96 | 994.2 |
| 20260901153013 | 55 | 174 | 0.0 | 0.0 | 0.00 | 0.00 | 0.00 | 96 | 994.2 |
| 20260901151508 | 55 | 222 | 0.0 | 0.0 | 0.00 | 0.00 | 0.00 | 97 | 994.4 |
| 20260901150007 | 53 | 218 | 0.0 | 0.0 | 0.00 | 0.00 | 0.00 | 97 | 994.3 |
| 20260901144508 | 51 | 91 | 0.0 | 0.0 | 0.00 | 0.00 | 0.00 | 96 | 994.2 |
| 20260901143006 | 51 | 91 | 0.0 | 0.0 | 0.00 | 0.00 | 0.00 | 96 | 994.1 |
| 20260901141503 | 50 | 90 | 0.0 | 0.0 | 0.00 | 0.00 | 0.00 | 96 | 993.9 |
| 20260901140004 | 50 | 91 | 0.0 | 0.0 | 0.00 | 0.00 | 0.00 | 96 | 993.8 |
| 20260901134502 | 50 | 73 | 0.0 | 0.0 | 0.00 | 0.00 | 0.00 | 95 | 993.8 |
| 20260901133103 | 50 | 73 | 0.0 | 0.0 | 0.00 | 0.00 | 0.00 | 95 | 993.6 |
| 20260901131605 | 51 | 71 | 0.0 | 0.0 | 0.00 | 0.00 | 0.00 | 96 | 993.5 |
| 20260901130059 | 51 | 74 | 0.0 | 0.0 | 0.00 | 0.00 | 0.00 | 96 | 993.4 |
| 20260901124559 | 50 | 75 | 0.0 | 0.0 | 0.00 | 0.00 | 0.00 | 95 | 993.3 |
| 20260901123057 | 51 | 101 | 0.0 | 0.0 | 0.00 | 0.00 | 0.00 | 96 | 993.3 |
| 20260901121609 | 51 | 231 | 0.0 | 0.0 | 0.00 | 0.00 | 0.00 | 96 | 993.3 |
| 20260901120104 | 51 | 231 | 0.0 | 0.0 | 0.00 | 0.00 | 0.00 | 96 | 993.2 |
| 20260901114600 | 50 | 117 | 0.0 | 0.0 | 0.00 | 0.00 | 0.00 | 95 | 993.3 |
| 20260901113052 | 50 | 117 | 0.0 | 0.0 | 0.00 | 0.00 | 0.00 | 95 | 993.1 |
| 20260901111553 | 51 | 117 | 0.0 | 0.0 | 0.00 | 0.00 | 0.00 | 95 | 993.0 |
| 20260901110051 | 50 | 88 | 0.0 | 0.0 | 0.00 | 0.00 | 0.00 | 95 | 992.9 |
| 20260901104549 | 51 | 84 | 0.0 | 0.0 | 0.00 | 0.00 | 0.00 | 95 | 993.1 |
| 20260901103056 | 50 | 90 | 0.0 | 0.0 | 0.00 | 0.00 | 0.00 | 95 | 992.9 |
| 20260901101552 | 50 | 90 | 0.0 | 0.0 | 0.00 | 0.00 | 0.00 | 95 | 992.9 |
| 20260901100047 | 51 | 89 | 0.0 | 0.0 | 0.00 | 0.00 | 0.00 | 95 | 992.8 |
| 20260901094545 | 50 | 89 | 0.0 | 0.0 | 0.00 | 0.00 | 0.00 | 94 | 992.5 |
| 20260901093111 | 51 | 102 | 0.0 | 0.0 | 0.00 | 0.00 | 0.00 | 94 | 992.6 |
| 20260901091557 | 51 | 102 | 0.0 | 0.0 | 0.00 | 0.00 | 0.00 | 94 | 992.6 |
| 20260901090040 | 51 | 102 | 0.0 | 0.0 | 0.00 | 0.00 | 0.00 | 94 | 992.5 |
| 20260901084537 | 52 | 102 | 0.0 | 0.0 | 0.00 | 0.00 | 0.00 | 94 | 992.4 |
| 20260901083043 | 52 | 102 | 0.0 | 0.0 | 0.00 | 0.00 | 0.00 | 94 | 992.4 |
| 20260901081536 | 52 | 102 | 0.0 | 0.0 | 0.00 | 0.00 | 0.00 | 94 | 992.3 |
| 20260901080032 | 53 | 103 | 0.0 | 0.0 | 0.00 | 0.00 | 0.00 | 93 | 992.2 |
| 20260901074531 | 54 | 70 | 0.0 | 0.0 | 0.00 | 0.00 | 0.00 | 94 | 992.2 |
| 20260901073028 | 54 | 70 | 0.0 | 0.0 | 0.00 | 0.00 | 0.00 | 93 | 992.1 |
| 20260901071529 | 55 | 70 | 0.0 | 0.0 | 0.00 | 0.00 | 0.00 | 93 | 992.0 |
| 20260901070028 | 55 | 69 | 0.0 | 0.0 | 0.00 | 0.00 | 0.00 | 94 | 992.0 |
| 20260901064523 | 54 | 167 | 0.0 | 0.0 | 0.00 | 0.00 | 0.00 | 93 | 992.1 |
| 20260901063022 | 55 | 167 | 0.0 | 0.0 | 0.00 | 0.00 | 0.00 | 92 | 992.0 |
| 20260901061522 | 55 | 167 | 0.0 | 0.0 | 0.00 | 0.00 | 0.00 | 92 | 992.1 |
| 20260901060022 | 56 | 167 | 0.0 | 0.0 | 0.00 | 0.00 | 0.00 | 92 | 992.3 |
| 20260901054521 | 56 | 167 | 0.0 | 0.0 | 0.00 | 0.00 | 0.00 | 91 | 992.3 |
| 20260901053023 | 57 | 167 | 0.0 | 0.0 | 0.00 | 0.00 | 0.00 | 90 | 992.3 |
| 20260901051520 | 57 | 167 | 0.0 | 0.0 | 0.00 | 0.00 | 0.00 | 90 | 992.4 |
| 20260901050020 | 58 | 167 | 0.0 | 0.0 | 0.00 | 0.00 | 0.00 | 90 | 992.3 |
| 20260901044519 | 58 | 167 | 0.0 | 0.0 | 0.00 | 0.00 | 0.00 | 89 | 992.4 |
| 20260901043019 | 60 | 174 | 0.0 | 0.0 | 0.00 | 0.00 | 0.00 | 88 | 992.5 |
| 20260901041518 | 61 | 253 | 0.0 | 0.0 | 0.00 | 0.00 | 0.00 | 86 | 992.4 |
| 20260901040020 | 62 | 253 | 0.0 | 0.0 | 0.00 | 0.00 | 0.00 | 85 | 992.3 |
| 20260901034516 | 63 | 253 | 0.0 | 0.0 | 0.00 | 0.00 | 0.00 | 83 | 992.1 |
| 20260901033033 | 64 | 253 | 0.0 | 0.0 | 0.00 | 0.00 | 0.00 | 79 | 991.9 |
| 20260901031516 | 66 | 253 | 0.0 | 0.0 | 0.00 | 0.00 | 0.00 | 76 | 991.8 |
| 20260901030016 | 68 | 253 | 0.0 | 0.0 | 0.00 | 0.00 | 0.00 | 74 | 991.8 |
| 20260901024516 | 69 | 253 | 0.0 | 0.0 | 0.00 | 0.00 | 0.00 | 72 | 991.8 |
| 20260901023014 | 71 | 252 | 0.0 | 0.0 | 0.00 | 0.00 | 0.00 | 70 | 991.8 |
| 20260901021518 | 72 | 290 | 0.0 | 0.0 | 0.00 | 0.00 | 0.00 | 69 | 991.7 |
| 20260901020013 | 71 | 288 | 0.0 | 0.0 | 0.00 | 0.00 | 0.00 | 68 | 991.7 |
| 20260901014512 | 74 | 275 | 0.0 | 0.0 | 0.00 | 0.00 | 0.00 | 66 | 991.7 |
| 20260901013012 | 75 | 298 | 0.0 | 3.0 | 0.00 | 0.00 | 0.00 | 65 | 991.6 |
| 20260901011511 | 74 | 258 | 0.0 | 0.0 | 0.00 | 0.00 | 0.00 | 65 | 991.6 |
| 20260901010011 | 75 | 264 | 0.0 | 2.0 | 0.00 | 0.00 | 0.00 | 63 | 991.5 |
| 20260901004510 | 75 | 301 | 0.0 | 4.0 | 0.00 | 0.00 | 0.00 | 64 | 991.6 |
| 20260901003012 | 76 | 268 | 0.0 | 0.0 | 0.00 | 0.00 | 0.00 | 62 | 991.7 |
| 20260901001514 | 76 | 274 | 0.0 | 0.0 | 0.00 | 0.00 | 0.00 | 63 | 991.7 |
| 20260901000007 | 77 | 313 | 0.0 | 6.0 | 0.00 | 0.00 | 0.00 | 61 | 991.9 |
| 20260831234517 | 77 | 295 | 1.0 | 6.0 | 0.00 | 0.00 | 0.00 | 61 | 992.0 |
| 20260831233004 | 77 | 272 | 2.0 | 10.0 | 0.00 | 0.00 | 0.00 | 62 | 992.1 |
| 20260831231502 | 76 | 307 | 0.0 | 5.0 | 0.00 | 0.00 | 0.00 | 62 | 992.3 |
| 20260831230000 | 76 | 287 | 0.0 | 4.0 | 0.00 | 0.00 | 0.00 | 63 | 992.4 |
| 20260831224559 | 77 | 326 | 0.0 | 9.0 | 0.00 | 0.00 | 0.00 | 60 | 992.5 |
| 20260831223058 | 77 | 337 | 1.0 | 6.0 | 0.00 | 0.00 | 0.00 | 61 | 992.8 |
| 20260831221601 | 76 | 321 | 0.0 | 4.0 | 0.00 | 0.00 | 0.00 | 61 | 992.9 |
| 20260831220119 | 77 | 209 | 1.0 | 9.0 | 0.00 | 0.00 | 0.00 | 61 | 993.1 |
| 20260831214552 | 76 | 244 | 0.0 | 7.0 | 0.00 | 0.00 | 0.00 | 61 | 993.2 |
| 20260831213050 | 76 | 324 | 1.0 | 6.0 | 0.00 | 0.00 | 0.00 | 62 | 993.3 |
| 20260831211548 | 76 | 11 | 0.0 | 5.0 | 0.00 | 0.00 | 0.00 | 61 | 993.4 |
| 20260831210046 | 75 | 15 | 1.0 | 9.0 | 0.00 | 0.00 | 0.00 | 64 | 993.8 |
| 20260831204554 | 75 | 263 | 0.0 | 6.0 | 0.00 | 0.00 | 0.00 | 64 | 993.9 |
| 20260831203056 | 74 | 252 | 0.0 | 6.0 | 0.00 | 0.00 | 0.00 | 66 | 994.0 |
| 20260831201539 | 73 | 262 | 1.0 | 7.0 | 0.00 | 0.00 | 0.00 | 67 | 994.2 |